This demonstration page uses our WeatherBlox Daily Observations layout. Learn more.

Left ArrowRight Arrow

Hourly Observations for March 27, 2020

Temp ( °F °C ) Dew Point ( °F °C ) Humidity (%) Winds ( mph kmh ) Pressure ( in mb ) Visibility ( mi km ) Precip ( " mm )
12:53 am 00:53 Cloudy 59 15 52 11.1 78 78 N 5 7 29.8 1009 10 16.0934 N/A
1:53 am 01:53 Partly Cloudy 56 13.3 52 11.1 87 87 N 5 7 29.81 1010 10 16.0934 N/A
2:53 am 02:53 Mostly Cloudy 56 13.3 52 11.1 87 87 ENE 5 7 29.82 1010 10 16.0934 N/A
3:25 am 03:25 Mostly Cloudy 56 13.3 52 11.1 87 87 E 5 7 29.83 1010 10 16.0934 N/A
3:53 am 03:53 Cloudy 56 13.3 52 11.1 87 87 ENE 7 11 29.82 1010 10 16.0934 N/A
4:53 am 04:53 Cloudy 56 13.3 51 10.6 84 84 E 8 13 29.83 1010 10 16.0934 N/A
5:53 am 05:53 Cloudy 55 12.8 51 10.6 87 87 ENE 7 11 29.84 1011 8 12.87472 N/A
6:53 am 06:53 Cloudy 54 12.2 51 10.6 90 90 E 7 11 29.85 1011 8 12.87472 N/A
7:53 am 07:53 Cloudy with Light Rain 54 12.2 52 11.1 93 93 N N/A 29.9 1013 6 9.65604 0.001 0.001
8:27 am 08:27 Cloudy with Rain 54 12.2 52 11.1 93 93 N N/A 29.9 1013 2.5 4.02335 0.07 1.778
8:53 am 08:53 Cloudy with Rain 54 12.2 52 11.1 93 93 NNE 6 9 29.88 1012 2 3.21868 0.14 3.556
9:03 am 09:03 Cloudy with Light Rain 54 12.2 52 11.1 93 93 ESE 5 7 29.88 1012 3 4.82802 0.001 0.001
9:14 am 09:14 Cloudy with Light Rain 54 12.2 53 11.7 97 97 N N/A 29.9 1013 3 4.82802 0.001 0.001
9:23 am 09:23 Cloudy with Light Rain 54 12.2 52 11.1 93 93 N N/A 29.9 1013 3 4.82802 0.01 0.254
9:42 am 09:42 Cloudy with Light Rain 54 12.2 52 11.1 93 93 ENE 5 7 29.9 1013 2.5 4.02335 0.03 0.762
9:53 am 09:53 Cloudy with Light Rain 54 12.2 53 11.7 97 97 NE 6 9 29.89 1012 3 4.82802 0.03 0.762
10:02 am 10:02 Cloudy with Light Rain 55 12.8 53 11.7 93 93 NE 8 13 29.9 1013 4 6.43736 0.01 0.254
10:15 am 10:15 Cloudy with Light Rain 54 12.2 53 11.7 97 97 NE 6 9 29.92 1013 3 4.82802 0.01 0.254
10:28 am 10:28 Cloudy with Rain 54 12.2 52 11.1 93 93 E 7 11 29.91 1013 2.5 4.02335 0.02 0.508
10:36 am 10:36 Cloudy with Light Rain 55 12.8 53 11.7 93 93 ENE 7 11 29.89 1012 2.5 4.02335 0.03 0.762
10:44 am 10:44 Cloudy with Light Rain 55 12.8 53 11.7 93 93 E 9 15 29.88 1012 4 6.43736 0.03 0.762
10:53 am 10:53 Cloudy with Mist and Fog 55 12.8 53 11.7 93 93 E 3 6 29.9 1013 5 8.0467 0.03 0.762
11:11 am 11:11 Cloudy with Light Rain 55 12.8 53 11.7 93 93 E 7 11 29.89 1012 2 3.21868 0.03 0.762
11:21 am 11:21 Cloudy with Light Rain 55 12.8 53 11.7 93 93 E 14 22 29.85 1011 4 6.43736 0.03 0.762
11:53 am 11:53 Mostly Cloudy with Mist and Fog 56 13.3 56 13.3 100 100 ESE 7 11 29.84 1010 5 8.0467 0.04 1.016
12:53 pm 12:53 Cloudy 60 15.6 58 14.4 93 93 SE 5 7 29.84 1011 8 12.87472 0.001 0.001
1:05 pm 13:05 Cloudy 60 15.6 57 13.9 90 90 ESE 5 7 29.83 1010 7 11.26538 N/A
1:23 pm 13:23 Partly Cloudy 62 16.7 59 15 90 90 E 6 9 29.82 1010 8 12.87472 N/A
1:36 pm 13:36 Mostly Cloudy 63 17.2 59 15 87 87 E 6 9 29.82 1010 9 14.48406 N/A
1:53 pm 13:53 Mostly Cloudy 63 17.2 59 15 87 87 ENE 6 9 29.83 1010 10 16.0934 N/A
2:18 pm 14:18 Cloudy 61 16.1 57 13.9 87 87 N 12 19 29.86 1011 9 14.48406 N/A
2:31 pm 14:31 Cloudy 60 15.6 56 13.3 86 86 N 12 19 29.88 1012 8 12.87472 N/A
2:53 pm 14:53 Cloudy with Light Rain 59 15 56 13.3 90 90 N 10 17 29.88 1012 6 9.65604 0.001 0.001
3:35 pm 15:35 Cloudy 60 15.6 57 13.9 90 90 NNE 9 15 29.86 1011 7 11.26538 0.01 0.254
3:49 pm 15:49 Cloudy with Mist and Fog 61 16 57 14 88 88 NE 10 17 29.85 1011 6 9.65604 0.01 0.254
3:53 pm 15:53 Cloudy with Mist and Fog 60 15.6 57 13.9 90 90 ENE 8 13 29.86 1011 6 9.65604 0.01 0.254
4:43 pm 16:43 Cloudy 60 15.6 57 13.9 90 90 E 10 17 29.83 1010 10 16.0934 N/A
4:53 pm 16:53 Mostly Cloudy 60 15.6 57 13.9 90 90 E 8 13 29.83 1010 10 16.0934 N/A
5:37 pm 17:37 Cloudy 60 15.6 57 13.9 90 90 NE 12 19 29.85 1011 10 16.0934 N/A
5:53 pm 17:53 Cloudy 60 15.6 56 13.3 86 86 ENE 9 15 29.84 1011 10 16.0934 N/A
6:12 pm 18:12 Cloudy 59 15 56 13.3 90 90 ENE 9 15 29.86 1011 10 16.0934 N/A
6:27 pm 18:27 Cloudy 59 15 56 13.3 90 90 ENE 12 19 29.85 1011 10 16.0934 N/A
6:53 pm 18:53 Cloudy 59 15 55 12.8 87 87 ENE 10 17 29.85 1011 10 16.0934 N/A
7:53 pm 19:53 Cloudy 58 14.4 55 12.8 90 90 E 8 13 29.86 1011 10 16.0934 N/A
8:50 pm 20:50 Cloudy 57 14 55 13 94 94 E 6 9 29.88 1012 10 16.0934 N/A
8:53 pm 20:53 Cloudy 58 14.4 55 12.8 90 90 E 7 11 29.88 1012 10 16.0934 N/A
9:53 pm 21:53 Cloudy 58 14.4 55 12.8 90 90 E 7 11 29.87 1011 10 16.0934 N/A
10:53 pm 22:53 Mostly Cloudy 57 13.9 55 12.8 93 93 ENE 3 6 29.87 1011 10 16.0934 N/A
11:53 pm 23:53 Cloudy 57 13.9 55 12.8 93 93 ESE 3 6 29.87 1012 10 16.0934 N/A

Powered by AerisWeather